Regional Weather Roundup
Issued by NWS Grand Forks, ND

Home | Current Version | Previous Version | Text Only | Print | Product List | Glossary On
Versions: 1 2 3 4 5 6 7 8 9 10 11 12 13 14 15 16 17 18 19 20 21 22 23 24 25 26 27 28 29 30 31 32 33 34 35 36 37 38 39 40 41 42 43 44 45 46 47 48 49 50
000
ASUS43 KFGF 251131
RWRFGF
PRAIRIE TO PINES  WEATHER ROUNDUP
NATIONAL WEATHER SERVICE EASTERN NORTH DAKOTA/GRAND FORKS ND
600 AM CDT THU AUG 25 2016

 **SATELLITE DATA USED TO AUGMENT SKY COVER AT AUTOMATED STATIONS**
 *****  WEATHER ACROSS EASTERN NORTH DAKOTA  *****

CITY           SKY/WX    TMP DP  RH WIND       PRES   REMARKS
GRAND FORKS    CLOUDY    60  54  80 W14       29.92R
GRAND FRKS AFB CLOUDY    59  53  80 W15       29.92S
GRAND FRKS NWS   N/A     57 N/A N/A NW7         N/A
DEVILS LAKE    LGT RAIN  55  54  94 NW15      29.99R
FARGO          MOCLDY    56  51  84 SW10      29.99R
WAHPETON ARPT  SUNNY     52  46  82 W7        30.03S
$$

 ***** WEATHER ACROSS CENTRAL AND WESTERN NORTH DAKOTA  *****

CITY           SKY/WX    TMP DP  RH WIND       PRES   REMARKS
BISMARCK       CLOUDY    57  48  72 NW14G23   30.11R
MINOT          LGT RAIN  53  52  96 NW17      30.08R FOG
JAMESTOWN      CLOUDY    56  51  84 W12       30.03R
MINOT AFB      CLOUDY    52  50  93 NW15      30.08R
GARRISON         N/A     53  50  89 NW14      30.09S
WILLISTON      CLOUDY    54  46  74 NW8       30.18R
DICKINSON      PTCLDY    49  45  86 W12       30.15S
HETTINGER      CLEAR     45  43  93 W9        30.21R
$$

 *****  OTHER AIRPORT OBSERVATIONS IN OUR AREA  *****

CITY           SKY/WX    TMP DP  RH WIND       PRES   REMARKS
WALHALLA       FAIR      57  54  88 NW15G25   29.92R
GRAFTON AIRPOR CLOUDY    59  55  88 W14       29.92R
VALLEY CITY AR CLOUDY    55  55 100 W16G25    30.03R
CANDO          PTSUNNY   54  54 100 NW13G21   30.02R
CAVALIER APRT  CLOUDY    57  55  94 NW13      29.90R
GWINNER        PTSUNNY   54  52  94 SW9       30.05R
SHEYENNE NWR     N/A     52  50  93 SW5       29.95S
ROLLA          CLOUDY    54  54 100 N14G23    30.03R
 ***** THE ABOVE OBSERVATIONS ARE NON NWS ARE NOT QUALITY
       CONTROLLED AND MAY MIS-REPORT RAIN FOR SNOW...
$$

  *****  WEATHER ACROSS NORTHERN MINNESOTA  *****

CITY           SKY/WX    TMP DP  RH WIND       PRES   REMARKS
FLAG ISLAND    MOCLDY    55  54  94 SW8       29.82R FOG
WARROAD        CLOUDY    55  52  88 SW9       29.86S
ROSEAU         CLOUDY    57  52  82 SW8       29.86S
HALLOCK        CLOUDY    57  55  94 W9        29.87R
THF RVR FALLS  CLOUDY    55  53  93 SW10      29.91S
BAUDETTE       CLEAR     52  50  93 SW6       29.86R
WASKISH        CLOUDY    61  55  82 SW16      29.89R
CROOKSTON      CLOUDY    57  54  88 W9        29.93S
STEPHEN NDAWN    N/A     57  55  94 SW8         N/A
GREENBUSH NDAW   N/A     55  54  94 SW10        N/A
$$
  *****  WEATHER ACROSS CENTRAL AND WEST MINNESOTA  *****

CITY           SKY/WX    TMP DP  RH WIND       PRES   REMARKS
FOSSTON        CLOUDY    54  52  94 SW8       29.95R
BEMIDJI        MOCLDY    54  51  90 SW8       29.94R
PARK RAPIDS    MOCLDY    55  51  86 SW5       29.97S
ELBOW LAKE     FAIR      51  50  95 W8        30.04S
WADENA         CLEAR     54  52  94 W7        29.99S
DETROIT LAKES  PTCLDY    54  52  94 W10       30.00S
MOORHEAD       MOCLDY    54  52  94 SW8       30.00R
FERGUS FALLS   CLEAR     52  52 100 W6        30.04S
MORRIS MN      CLEAR     54  52  94 W8        30.04S
STAPLES        CLEAR     54  50  87 W8        29.99S
$$
  *****  WEATHER ELSEWHERE ACROSS MINNESOTA  *****

CITY           SKY/WX    TMP DP  RH WIND       PRES   REMARKS
DULUTH         CLEAR     56  53  90 W9        29.95S
INTRNTL FALLS  CLEAR     52  50  93 SW5       29.87S
ELY            CLEAR     54  52  94 SW3       29.92R
CLOQUET        CLEAR     57  52  82 SW7       29.96R
WHEATON        CLEAR     55  52  88 SW7       30.07R
BRAINERD       CLEAR     54  53  97 S6        29.99R
HIBBING        CLEAR     48  48 100 SW3       29.93S
ALEXANDRIA     CLEAR     57  51  80 W13       30.04R
SAINT CLOUD    CLEAR     54  54 100 S3        30.01S
MINNEAPOLIS    PTCLDY    62  58  86 SW3       30.02S
$$

  *****  WEATHER ACROSS SOUTH DAKOTA  *****

CITY           SKY/WX    TMP DP  RH WIND       PRES   REMARKS
SIOUX FALLS    MOCLDY    59  55  87 CALM      30.10R
BROOKINGS      PTCLDY    52  51  97 NW3       30.10S
WATERTOWN      CLEAR     57  49  74 W8        30.09S
HURON          CLEAR     50  47  89 NW7       30.13R
SISSETON         N/A     56  50  80 NW13      30.04R
ABERDEEN       CLEAR     51  47  86 SW6       30.11R
MITCHELL       MOCLDY    54  50  86 N3        30.13R
PIERRE         CLEAR     54  47  77 NW9       30.17R
MOBRIDGE       CLEAR     54  47  77 NW12      30.13R
RAPID CITY     CLOUDY    55  40  56 N14       30.23S
$$

  *****  SOME WEATHER IN NEARBY STATES *****

CITY           SKY/WX    TMP DP  RH WIND       PRES   REMARKS
GLASGOW MT     MOCLDY    50  43  77 W10       30.22F
GREAT FALLS MT CLEAR     40  36  86 SW10      30.29F
CHEYENNE WY    CLOUDY    46  43  89 N8        30.28S
SCOTTSBLUFF NE CLOUDY    51  48  89 CALM      30.24R
OMAHA NE       PTCLDY    59  56  89 N6        30.09S
DES MOINES IA  MOCLDY    68  63  84 N7        30.05F
DAVENPORT IA   PTCLDY    70  69  97 NW5       30.01R
CHICAGO IL     CLOUDY    71  69  93 S5        29.95S
EAU CLAIRE WI  CLOUDY    61  59  93 S3        30.01R
LA CROSSE WI   CLOUDY    64  32  30 CALM      30.02R
$$

  *****  SOME NATIONAL WEATHER *****

CITY           SKY/WX    TMP DP  RH WIND       PRES   REMARKS
LA GUARDIA NY  MOCLDY    73  63  70 SW9       30.12S
RALEIGH NC     MOCLDY    67  64  90 CALM      30.19R
ATLANTA GA     PTCLDY    72  70  93 E6        30.20R
NEW ORLEANS LA MOCLDY    83  78  85 CALM      30.07R HX  93
OKLAHOMA CITY  PTCLDY    74  69  85 S9        30.05R
ALBUQUERQUE NM CLEAR     59  49  69 E5        30.24R
SALT LAKE CITY CLEAR     61  31  32 CALM      30.10S
LOS ANGELES CA CLEAR     64  58  80 CALM      29.94S
BOISE ID       CLEAR     60  32  34 SE9       30.10R
SEATTLE WA     PTCLDY    66  53  63 SE5       30.14S
$$

*** WEATHER ACROSS MANITOBA...SASKATCHEWAN AND ONTARIO ***
                ***ONTARIO***

CITY           SKY/WX    TMP DP  RH WIND       PRES   REMARKS
GERALDTON      FOG       61  61 100 NE5       29.80S VSB 1/8
THUNDER BAY    PTCLDY    59  54  82 W8        29.85R
SIOUX LOOKOUT  MOCLDY    59  55  88 W3        29.81
TORONTO        MOCLDY    73  72  94 SW5       29.92R
BIG TROUT LK   CLOUDY    46  45  93 NW2       29.89  FOG
PICKLE LAKE    LGT RAIN  50  50 100 NE9       29.82  FOG
DRYDEN         CLOUDY    57  54  88 SW5       29.81F
KENORA         MOCLDY    57  54  88 SW5       29.82S
$$
                *** MANITOBA***

CITY           SKY/WX    TMP DP  RH WIND       PRES   REMARKS
BRANDON        CLOUDY    54  52  94 NW12      30.03R
DAUPHIN        MOCLDY    52  50  93 W9        30.01S
ISLAND LAKE    PTCLDY    52  50  93 NW2       29.93S
PILOT MOUND      N/A     54  52  94 NW13G20     N/A
THE PAS        PTCLDY    46  45  93 VRB2      29.99F
THOMPSON       PTCLDY    43  41  93 CALM      29.92S
WINNIPEG       LGT RAIN  55  54  94 N15G22    29.88R
LYNN LAKE      CLEAR     54  50  87 MISG      29.96S
CHURCHILL      PTCLDY    48  45  87 SW7       29.83F
GILLAM         PTCLDY    43  39  87 SW3       29.88S
$$
                ***SASKATCHEWAN***

CITY           SKY/WX    TMP DP  RH WIND       PRES   REMARKS
ESTEVAN        CLOUDY    52  48  87 W9        30.14S
KINDERSLEY     PTCLDY    46  45  93 W2        30.15F
LLOYDMINSTER   CLOUDY    55  54  94 W10       30.14S
PRINCE ALBERT  PTCLDY    45  43  93 W5        30.08
REGINA         PTCLDY    41  41 100 W3        30.13F
YORKTON        CLEAR     46  46 100 W3        30.07S
N. BATTLEFORD  CLEAR     45  45 100 CALM      30.13F
LA RONGE       PTCLDY    50  48  93 W3        30.05
SASKATOON      PTCLDY    43  43 100 SW3       30.13F
SWIFT CURRENT  CLEAR     46  43  87 SW12      30.18F
$$
NOTE: THESE ARE AUTOMATED STATIONS WITH LIMITED QUALITY CONTROL
      "FAIR" INDICATES FEW OR NO CLOUDS BELOW 12,000 FEET WITH NO
      SIGNIFICANT WEATHER AND/OR OBSTRUCTIONS TO VISIBILITY.
      SKY/WX - SKY CONDITION AND SIGNIFICANT WEATHER.
      TMP - AIR TEMPERATURE.    DP   - DEWPOINT TEMPERATURE.
      RH  - RELATIVE HUMIDITY.  PRES - PRESSURE.
      HX  - HEAT INDEX.         WCI  - WIND CHILL INDEX.
$



USA.gov is the U.S. government's official web portal to all federal, state and local government web resources and services.